TimeCDT,TemperatureF,Dew PointF,Humidity,Sea Level PressureIn,VisibilityMPH,Wind Direction,Wind SpeedMPH,Gust SpeedMPH,PrecipitationIn,Events,Conditions,WindDirDegrees,DateUTC
12:14 AM,59.5,57.7,94,30.10,10.0,NNW,3.5,-,N/A,,Clear,330,2013-08-13 05:14:00
12:34 AM,59.2,55.8,88,30.10,10.0,North,4.6,-,N/A,,Clear,350,2013-08-13 05:34:00
12:53 AM,59.2,55.8,88,30.11,10.0,NNW,5.8,-,N/A,,Clear,340,2013-08-13 05:53:00
1:14 AM,58.5,55.8,91,30.11,10.0,North,3.5,-,N/A,,Clear,350,2013-08-13 06:14:00
1:33 AM,59.0,55.4,88,30.11,10.0,Calm,Calm,-,N/A,,Clear,0,2013-08-13 06:33:00
1:54 AM,57.9,54.7,89,30.12,10.0,Calm,Calm,-,N/A,,Clear,0,2013-08-13 06:54:00
2:13 AM,57.4,54.9,91,30.13,10.0,NNW,4.6,-,N/A,,Clear,340,2013-08-13 07:13:00
2:34 AM,57.0,54.7,92,30.12,10.0,North,3.5,-,N/A,,Clear,350,2013-08-13 07:34:00
2:53 AM,56.3,54.5,94,30.13,10.0,Calm,Calm,-,N/A,,Clear,0,2013-08-13 07:53:00
3:14 AM,58.1,55.8,92,30.13,10.0,NE,5.8,-,N/A,,Clear,40,2013-08-13 08:14:00
3:34 AM,58.6,56.5,93,30.14,10.0,NE,6.9,-,N/A,,Scattered Clouds,40,2013-08-13 08:34:00
3:54 AM,58.3,56.3,93,30.13,10.0,NE,6.9,-,N/A,,Scattered Clouds,50,2013-08-13 08:54:00
4:14 AM,57.6,55.9,94,30.14,10.0,NE,5.8,-,N/A,,Clear,50,2013-08-13 09:14:00
4:33 AM,57.4,55.6,94,30.14,10.0,NE,4.6,-,N/A,,Clear,50,2013-08-13 09:33:00
4:54 AM,56.8,55.6,96,30.14,10.0,NE,5.8,-,N/A,,Clear,40,2013-08-13 09:54:00
5:13 AM,55.4,54.3,96,30.14,10.0,Calm,Calm,-,N/A,,Clear,0,2013-08-13 10:13:00
5:34 AM,54.7,54.5,99,30.14,5.0,Calm,Calm,-,N/A,,Clear,0,2013-08-13 10:34:00
5:53 AM,54.0,53.6,99,30.15,10.0,NNE,3.5,-,N/A,,Scattered Clouds,30,2013-08-13 10:53:00
6:14 AM,55.9,55.4,98,30.15,10.0,NNE,4.6,-,N/A,,Scattered Clouds,30,2013-08-13 11:14:00
6:33 AM,54.9,54.1,97,30.16,10.0,NNE,3.5,-,N/A,,Clear,20,2013-08-13 11:33:00
6:53 AM,55.6,54.9,97,30.16,10.0,NNE,4.6,-,N/A,,Clear,30,2013-08-13 11:53:00
7:13 AM,57.7,56.3,95,30.17,10.0,NNE,4.6,-,N/A,,Scattered Clouds,20,2013-08-13 12:13:00
7:34 AM,59.9,57.4,91,30.18,10.0,NNE,4.6,-,N/A,,Scattered Clouds,30,2013-08-13 12:34:00
7:52 AM,60.1,57.4,91,30.18,10.0,NE,5.8,-,N/A,,Scattered Clouds,50,2013-08-13 12:52:00
8:13 AM,61.7,57.6,86,30.19,10.0,NE,5.8,-,N/A,,Scattered Clouds,50,2013-08-13 13:13:00
8:33 AM,62.2,57.6,85,30.19,10.0,ENE,6.9,-,N/A,,Clear,70,2013-08-13 13:33:00
8:54 AM,63.0,57.4,82,30.20,10.0,NE,3.5,-,N/A,,Clear,50,2013-08-13 13:54:00
9:13 AM,64.0,57.9,80,30.21,10.0,ENE,4.6,-,N/A,,Clear,60,2013-08-13 14:13:00
9:34 AM,65.3,57.0,75,30.22,10.0,NE,3.5,-,N/A,,Clear,50,2013-08-13 14:34:00
9:54 AM,66.2,55.0,67,30.22,10.0,Calm,Calm,-,N/A,,Clear,0,2013-08-13 14:54:00
10:13 AM,66.9,56.8,70,30.22,10.0,East,3.5,-,N/A,,Clear,80,2013-08-13 15:13:00
10:34 AM,68.5,53.8,59,30.22,10.0,Calm,Calm,-,N/A,,Clear,0,2013-08-13 15:34:00
10:53 AM,69.3,53.1,56,30.22,10.0,ENE,4.6,-,N/A,,Clear,60,2013-08-13 15:53:00
11:14 AM,70.0,51.1,51,30.22,10.0,ENE,6.9,-,N/A,,Scattered Clouds,60,2013-08-13 16:14:00
11:34 AM,68.9,50.5,52,30.22,10.0,North,3.5,-,N/A,,Scattered Clouds,350,2013-08-13 16:34:00
11:54 AM,70.3,49.5,47,30.22,10.0,NE,5.8,-,N/A,,Scattered Clouds,50,2013-08-13 16:54:00
12:13 PM,70.3,50.2,49,30.22,10.0,NNW,4.6,-,N/A,,Scattered Clouds,340,2013-08-13 17:13:00
12:34 PM,71.8,52.2,50,30.22,10.0,ENE,5.8,-,N/A,,Scattered Clouds,60,2013-08-13 17:34:00
12:53 PM,70.3,51.3,51,30.22,10.0,North,4.6,-,N/A,,Scattered Clouds,10,2013-08-13 17:53:00
1:14 PM,71.1,52.2,51,30.22,10.0,WNW,6.9,-,N/A,,Mostly Cloudy,300,2013-08-13 18:14:00
1:34 PM,71.8,49.5,45,30.22,10.0,NNE,4.6,-,N/A,,Mostly Cloudy,30,2013-08-13 18:34:00
1:54 PM,70.5,50.7,49,30.22,10.0,NNW,6.9,-,N/A,,Mostly Cloudy,340,2013-08-13 18:54:00
2:14 PM,72.0,52.5,50,30.21,10.0,NNE,6.9,-,N/A,,Scattered Clouds,20,2013-08-13 19:14:00
2:34 PM,72.9,50.7,46,30.21,10.0,NE,6.9,-,N/A,,Clear,40,2013-08-13 19:34:00
2:53 PM,71.4,51.1,49,30.20,10.0,North,5.8,-,N/A,,Scattered Clouds,360,2013-08-13 19:53:00
3:13 PM,72.0,52.3,50,30.20,10.0,North,6.9,-,N/A,,Scattered Clouds,350,2013-08-13 20:13:00
3:32 PM,73.0,52.5,48,30.20,10.0,NNW,9.2,-,N/A,,Scattered Clouds,340,2013-08-13 20:32:00
3:54 PM,73.6,51.1,45,30.20,10.0,Calm,Calm,-,N/A,,Scattered Clouds,0,2013-08-13 20:54:00
4:13 PM,73.4,51.6,46,30.19,10.0,NE,5.8,-,N/A,,Scattered Clouds,50,2013-08-13 21:13:00
4:33 PM,72.3,52.3,49,30.19,10.0,Calm,Calm,-,N/A,,Clear,0,2013-08-13 21:33:00
4:54 PM,71.8,50.2,46,30.18,10.0,Calm,Calm,-,N/A,,Scattered Clouds,0,2013-08-13 21:54:00
5:14 PM,73.4,50.4,44,30.18,10.0,NE,4.6,-,N/A,,Scattered Clouds,40,2013-08-13 22:14:00
5:34 PM,72.7,50.7,46,30.18,10.0,NNW,3.5,-,N/A,,Scattered Clouds,330,2013-08-13 22:34:00
5:54 PM,73.4,50.2,44,30.17,10.0,NNW,4.6,-,N/A,,Scattered Clouds,340,2013-08-13 22:54:00
6:13 PM,73.0,49.6,44,30.17,10.0,Calm,Calm,-,N/A,,Clear,0,2013-08-13 23:13:00
6:34 PM,72.9,50.5,45,30.16,10.0,WNW,4.6,-,N/A,,Clear,300,2013-08-13 23:34:00
6:54 PM,72.0,51.3,48,30.17,10.0,NNW,5.8,-,N/A,,Clear,330,2013-08-13 23:54:00
7:13 PM,70.9,53.1,53,30.17,10.0,Calm,Calm,-,N/A,,Clear,0,2013-08-14 00:13:00
7:19 PM,70.7,53.1,54,30.17,10.0,Calm,Calm,-,N/A,,Clear,0,2013-08-14 00:19:00
7:45 PM,69.8,55.4,60,30.16,10.0,Calm,Calm,-,N/A,,Clear,0,2013-08-14 00:45:00
8:05 PM,66.2,53.6,64,30.16,10.0,Calm,Calm,-,N/A,,Clear,0,2013-08-14 01:05:00
8:25 PM,60.8,57.2,88,30.16,10.0,Calm,Calm,-,N/A,,Clear,0,2013-08-14 01:25:00
8:45 PM,60.8,55.4,82,30.18,10.0,Calm,Calm,-,N/A,,Clear,0,2013-08-14 01:45:00
9:05 PM,59.0,55.4,88,30.18,10.0,Calm,Calm,-,N/A,,Clear,0,2013-08-14 02:05:00
9:25 PM,59.0,55.4,88,30.18,10.0,Calm,Calm,-,N/A,,Clear,0,2013-08-14 02:25:00
9:45 PM,59.0,55.4,88,30.18,10.0,Calm,Calm,-,N/A,,Clear,0,2013-08-14 02:45:00
10:05 PM,55.4,53.6,94,30.19,10.0,Calm,Calm,-,N/A,,Clear,0,2013-08-14 03:05:00
10:27 PM,54.9,53.1,94,30.19,10.0,Calm,Calm,-,N/A,,Clear,0,2013-08-14 03:27:00
10:34 PM,55.0,53.8,96,30.19,10.0,Calm,Calm,-,N/A,,Clear,0,2013-08-14 03:34:00
10:54 PM,56.5,54.3,92,30.19,10.0,Calm,Calm,-,N/A,,Clear,0,2013-08-14 03:54:00
11:14 PM,54.3,52.0,92,30.19,10.0,Calm,Calm,-,N/A,,Clear,0,2013-08-14 04:14:00
11:33 PM,53.4,52.3,96,30.19,10.0,Calm,Calm,-,N/A,,Clear,0,2013-08-14 04:33:00
11:53 PM,53.1,51.8,95,30.19,10.0,Calm,Calm,-,N/A,,Scattered Clouds,0,2013-08-14 04:53:00